Youngstown, OH

4:22 PM EDT on July 21, 2017 (GMT -0400)
Youngstown-Warren Regional

Weather History for KYNG - June, 2013

Change the Weather History Date:

Saturday, June 1, 2013

  Actual Average Record
Temperature  
Mean Temperature 76 °F 62 °F  
Max Temperature 85 °F 73 °F 96 °F (1934)
Min Temperature 66 °F 51 °F 35 °F (1966)
Degree Days  
Heating Degree Days 0 5  
Month to date heating degree days 0 5  
Since 1 June heating degree days 0 5  
Since 1 July heating degree days 6100 6285  
Cooling Degree Days 11 2  
Month to date cooling degree days 11 2  
Year to date cooling degree days 99 41  
Since 1 June cooling degree days 11 2  
Growing Degree Days 25 (Base 50)    
Moisture  
Dew Point 64 °F    
Average Humidity 74    
Maximum Humidity 93    
Minimum Humidity 55    
Precipitation  
Precipitation 0.02 in 0.13 in 1.28 in (2012)
Month to date precipitation 0.02 0.13  
Year to date precipitation 11.79 14.92  
Snow  
Snow 0.00 in 0.00 in - ()
Month to date snowfall 0.0 0.0  
Since 1 June snowfall 0.0 0.0  
Since 1 July snowfall 80.9 62.7  
Snow Depth 0.00 in    
Sea Level Pressure  
Sea Level Pressure 29.89 in    
Wind  
Wind Speed 11 mph (SSW)    
Max Wind Speed 22 mph    
Max Gust Speed 32 mph    
Visibility 10 miles    
Events      
T = Trace of Precipitation, MM = Missing Value Source: NWS Daily Summary

Daily Weather History Graph

Daily Weather History Graph

Search for Another Location

Airport or City:

Trip Planner

Search our weather history database for the weather conditions in past years. The results will help you decide how hot, cold, wet, or windy it might be!

Date:

Astronomy

Jun. 01, 2013 Rise Set
Actual Time 5:51 AM EDT 8:49 PM EDT
Civil Twilight 5:18 AM EDT 9:22 PM EDT
Nautical Twilight 4:37 AM EDT 10:04 PM EDT
Astronomical Twilight 3:48 AM EDT 10:53 PM EDT
Moon 1:51 AM EDT (6/1) 2:13 PM EDT (6/1)
Length of Visible Light 16h 03m
Length of Day
14h 57m
Last Quarter, 41% of the Moon is Illuminated
Jun 1
Last Quarter
Jun 8
New
Jun 16
First Quarter
Jun 23
Full
Jun 30
Last Quarter

Hourly Weather History & Observations

Time (EDT) Temp. Heat Index Dew Point Humidity Pressure Visibility Wind Dir Wind Speed Gust Speed Precip Events Conditions
12:51 AM 66.0 °F - 64.0 °F 93% 29.98 in 10.0 mi South 5.8 mph - 0.00 in   Mostly Cloudy
1:51 AM 66.9 °F - 64.0 °F 90% 29.97 in 10.0 mi South 6.9 mph - N/A   Overcast
2:51 AM 66.9 °F - 63.0 °F 87% 29.94 in 10.0 mi South 9.2 mph - N/A   Overcast
3:51 AM 66.9 °F - 63.0 °F 87% 29.93 in 10.0 mi South 8.1 mph - N/A   Scattered Clouds
4:51 AM 66.0 °F - 63.0 °F 90% 29.93 in 10.0 mi South 8.1 mph - N/A   Mostly Cloudy
5:51 AM 66.0 °F - 63.0 °F 90% 29.94 in 10.0 mi South 5.8 mph - N/A   Mostly Cloudy
6:51 AM 66.9 °F - 63.0 °F 87% 29.94 in 10.0 mi South 9.2 mph - N/A   Scattered Clouds
7:51 AM 70.0 °F - 64.0 °F 81% 29.94 in 10.0 mi South 8.1 mph - N/A   Scattered Clouds
8:51 AM 73.0 °F - 64.9 °F 76% 29.93 in 10.0 mi South 10.4 mph - N/A   Mostly Cloudy
9:51 AM 77.0 °F - 64.9 °F 66% 29.92 in 10.0 mi SW 16.1 mph 21.9 mph N/A   Mostly Cloudy
10:51 AM 79.0 °F - 66.0 °F 64% 29.90 in 10.0 mi SSW 11.5 mph 24.2 mph N/A   Overcast
11:51 AM 80.1 °F 81.9 °F 64.9 °F 60% 29.90 in 10.0 mi SW 18.4 mph 27.6 mph N/A   Overcast
12:51 PM 81.0 °F 82.7 °F 64.9 °F 58% 29.90 in 10.0 mi SSW 15.0 mph 23.0 mph N/A   Overcast
1:51 PM 82.0 °F 83.8 °F 64.9 °F 56% 29.88 in 10.0 mi SSW 21.9 mph 32.2 mph N/A   Overcast
2:51 PM 84.0 °F 86.3 °F 66.0 °F 55% 29.87 in 10.0 mi SSW 16.1 mph 26.5 mph N/A   Mostly Cloudy
3:51 PM 82.0 °F 83.8 °F 64.9 °F 56% 29.85 in 10.0 mi SSW 13.8 mph 26.5 mph N/A   Overcast
4:51 PM 82.0 °F 83.8 °F 64.9 °F 56% 29.86 in 10.0 mi SSW 12.7 mph 21.9 mph N/A   Overcast
5:51 PM 81.0 °F 82.5 °F 64.0 °F 56% 29.84 in 10.0 mi SSW 13.8 mph 26.5 mph N/A   Overcast
6:51 PM 80.1 °F 81.9 °F 64.9 °F 60% 29.82 in 10.0 mi SSW 9.2 mph - N/A   Overcast
7:51 PM 80.1 °F 81.9 °F 64.9 °F 60% 29.81 in 10.0 mi SSW 11.5 mph - N/A   Overcast
8:51 PM 78.1 °F - 64.9 °F 64% 29.81 in 10.0 mi South 11.5 mph 17.3 mph N/A   Mostly Cloudy
9:51 PM 78.1 °F - 64.9 °F 64% 29.80 in 10.0 mi South 9.2 mph - N/A   Mostly Cloudy
10:51 PM 75.9 °F - 64.0 °F 67% 29.78 in 10.0 mi South 6.9 mph - N/A   Mostly Cloudy
11:51 PM 75.0 °F - 64.0 °F 69% 29.76 in 10.0 mi South 8.1 mph - N/A   Overcast